Regional Weather Roundup
Issued by NWS

Home | Current Version | Previous Version | Graphics & Text | Print | Product List | Glossary On
Versions: 1 2 3 4 5 6 7 8 9 10 11 12 13 14 15 16 17 18 19 20 21 22 23 24 25 26 27
000
ASUS45 KSLC 180710
RWRUT

UTAH REGIONAL WEATHER ROUNDUP
NATIONAL WEATHER SERVICE SALT LAKE CITY UT
100 AM MDT FRI APR 18 2014

UTZ001>011-023>025-180800-

NORTHERN UTAH

CITY           SKY/WX    TMP DP  RH WIND       PRES   REMARKS
HILL AFB       CLOUDY    60  24  25 S10       29.83S
LOGAN          CLEAR     48  36  63 CALM      29.82F
OGDEN          CLOUDY    60  27  28 S10       29.80F
PROVO AIRPORT  MOCLDY    59  34  38 S13       29.90R
SALT LAKE CITY CLOUDY    63  29  27 S22       29.81S
VERNAL         PTCLDY    45  25  45 NW5       30.01S
WENDOVER       CLOUDY    61  27  27 N6        29.77F
HEBER CITY     PTCLDY    41  30  65 S3        29.96S
WEST JORDAN    CLEAR     61  36  39 S24G30    29.86R

$$

UTZ012>022-026-027-180800-

SOUTHERN UTAH

CITY           SKY/WX    TMP DP  RH WIND       PRES   REMARKS
BRYCE CANYON   PTCLDY    33  24  69 SW6       30.13S WCI  28
CEDAR CITY     CLOUDY    51  18  27 W5        29.99S
MILFORD        CLOUDY    54  21  27 SW13      29.95R
MOAB/CYNLANDS  CLEAR     52  21  29 CALM      29.97R
PRICE          CLEAR     47  20  34 NE8       30.03S
ST GEORGE      MOSUNNY   68  19  15 SE10      29.90R

$$

REGIONAL REPORTS     COLORADO/ARIZONA

CITY           SKY/WX    TMP DP  RH WIND       PRES   REMARKS
CRAIG, CO      CLEAR     36  26  67 CALM      30.08R
GRAND JUNCTION CLEAR     48  26  42 E5        30.03S
RIFLE          CLEAR     39  28  64 E3        30.10R
MONTROSE       CLEAR     47  26  44 SE12      30.12R
CORTEZ         CLEAR     34  23  64 CALM      30.12S
PAGE, AZ       PTCLDY    68  21  16 SW8       29.94S
GRAND CANYON   MOCLDY    36  15  42 CALM      30.13R
KINGMAN        MOCLDY    64  16  15 S12       29.92F
FLAGSTAFF      MOCLDY    40  18  41 CALM      30.14F

$$

REGIONAL REPORTS    NEVADA/IDAHO/WYOMING

CITY           SKY/WX    TMP DP  RH WIND       PRES   REMARKS
LAS VEGAS, NV  CLOUDY    74  23  15 S6        29.77S
ELY            CLOUDY    56  22  26 S15       29.94R
ELKO           CLOUDY    59  36  42 N10       29.84R
POCATELLO, ID  CLOUDY    60  29  30 W18G39    29.83R
BURLEY         LGT RAIN  55  42  61 W22G33    29.80R
EVANSTON, WY   PTCLDY    48  24  39 SE7       29.97F
ROCK SPRINGS   PTCLDY    44  20  38 SE9       30.00S

$$



USA.gov is the U.S. government's official web portal to all federal, state and local government web resources and services.